Regional Weather Roundup
Issued by NWS Green Bay, WI

Home | Current Version | Previous Version | Graphics & Text | Print | Product List | Glossary Off
Versions: 1 2 3 4 5 6 7 8 9 10 11 12 13 14 15 16 17 18 19 20 21 22 23 24 25 26 27 28 29 30 31 32 33 34 35 36 37 38 39 40 41 42 43 44 45 46 47 48 49 50

000
ASUS43 KGRB 282211
RWRGRB

NORTH-CENTRAL AND NORTHEAST WISCONSIN REGIONAL WEATHER ROUNDUP
NATIONAL WEATHER SERVICE GREEN BAY WI
500 PM CDT FRI AUG 28 2015

WIZ005-009-010>012-018-019-282300-
NORTH CENTRAL WISCONSIN

CITY           SKY/WX    TMP DP  RH WIND       PRES   REMARKS
IRONWOOD       PTSUNNY   77  64  65 SW10G20   29.94F
MANITOWISH WTR CLOUDY    70  62  76 SW10      30.03R
ARBOR VITAE    CLOUDY    72  64  76 SW6       30.04R
EAGLE RIVER    CLOUDY    70  60  69 SW6       30.04R
LAND O LAKES   CLOUDY    72  61  68 SW8       30.03S
RHINELANDER    CLOUDY    69  61  75 SW7       30.06S
PHILLIPS       MOSUNNY   69  62  77 S8        30.04R
ANTIGO         CLOUDY    65  62  89 SW9       30.07S
TOMAHAWK       CLOUDY    66  60  82 S3        30.06S
MERRILL        DRIZZLE   65  63  93 S6        30.06S
$$

WIZ013-073-282300-
NORTHEAST WISCONSIN

CITY           SKY/WX    TMP DP  RH WIND       PRES   REMARKS
IRON MOUNTAIN  CLOUDY    74  63  68 SW9       30.01R
MARINETTE      CLOUDY    70  61  73 SW12      30.03R
OCONTO         CLOUDY    67  63  87 SW8       30.05S
$$

WIZ017-030-035>037-045-282300-
CENTRAL WISCONSIN

CITY           SKY/WX    TMP DP  RH WIND       PRES   REMARKS
MEDFORD        LGT RAIN  63  62  97 CALM      30.05R
WAUSAU         LGT RAIN  65  62  90 SE7       30.04S
MOSINEE        LGT RAIN  63  63 100 VRB6      30.07F
MARSHFIELD     CLOUDY    66  61  84 S10       30.07R
WISC RAPIDS    LGT RAIN  64  61  90 S3        30.08S
STEVENS POINT  RAIN      61  60  95 CALM      30.06F
WAUPACA        RAIN      66  65  96 S5        30.09S
SHAWANO        DRIZZLE   67  63  86 SW6       30.07S
CLINTONVILLE   DRIZZLE   64  63  94 SW7       30.07S
WAUTOMA        LGT RAIN  64  64 100 E6        30.07F FOG
$$

WIZ038-039-048-051-282300-
FOX VALLEY

CITY           SKY/WX    TMP DP  RH WIND       PRES   REMARKS
NWS GREEN BAY  CLOUDY    68  62  81 SW6       30.08S
APPLETON       DRIZZLE   64  61  88 SW8       30.08
OSHKOSH        LGT RAIN  67  62  84 CALM      30.09S
FOND DU LAC    LGT RAIN  68  63  84 CALM      30.09F
$$

WIZ022-050-052-282300-
EAST CENTRAL WISCONSIN

CITY           SKY/WX    TMP DP  RH WIND       PRES   REMARKS
EPHRAIM        FAIR      67  60  79 S5        30.04S
STURGEON BAY   CLOUDY    70  59  68 SW9G16    30.08S
MANITOWOC      LGT RAIN  64  61  90 MISG      30.09S
SHEBOYGAN      CLOUDY    69  62  78 SW5       30.09F
$$

LMZ563-521-522-541>543-282300-
LAKESHORE

STATION/POSITION TIME  TEMP    WIND        PRES    VSBY  WAVE
                       AIR SEA DIR/SP/G                  HT/PER
                 (UTC) (F)     (DEG/KT/KT) (MB)    (MI)  (FT/S)
SHEBOYGAN LKSHOR 2200   64     180/  6/  6 1019.3S
ALGOMA MARINA    2114          210/ 11/ 14   N/A
NORTHPORT PIER   2100   66     150/  7/ 10 1016.9F
N MID LAKE BUOY  2150   64 64  200/ 17/ 19 1017.0F         3/ 4
S GREEN BAY BUOY 2200   65 62  210/ 10/ 14 1019.0F
SISTER BAY LKSHO 2119   69     200/ 14/ 16   N/A
CHAMBERS ISLAND  2100   69     190/  7/ 14 1016.9F
$$


USA.gov is the U.S. government's official web portal to all federal, state and local government web resources and services.